This demonstration page uses our WeatherBlox Daily Observations layout. Learn more.

Left ArrowRight Arrow

39.92423, -83.80882

Hourly Observations for January 13, 2018

Temp ( °F °C ) Dew Point ( °F °C ) Humidity (%) Winds ( mph kmh ) Pressure ( in mb ) Visibility ( mi km ) Precip ( " mm )
12:11 am 00:11 Windy with Snow Likely 16 -9 12 -11 86 86 NNW 23 37 30.15 1021 2 3.21868 0 0.0254
12:21 am 00:21 Windy with Snow Likely 16 -9 12 -11 86 86 NNW 23 37 30.15 1021 5 8.0467 0 0.0254
12:56 am 00:56 Windy with Snow Likely 16 -8.9 11 -11.7 80 80 N 29 46 30.13 1020 2.5 4.02335 0 0.0254
1:15 am 01:15 Windy with Snow Likely 16 -9 10 -12 79 79 NNW 23 37 30.18 1022 5 8.0467 0 0.0254
1:52 am 01:52 Windy with Snow Likely 16 -9 9 -13 73 73 NNW 24 39 30.21 1023 2.5 4.02335 0 0.0254
1:56 am 01:56 Windy with Snow Likely 15 -9.4 9 -12.8 77 77 N 23 37 30.16 1022 2.5 4.02335 0 0.0254
2:03 am 02:03 Windy with Snow Likely 16 -9 9 -13 73 73 NNW 23 37 30.21 1023 5 8.0467 0 0.0254
2:56 am 02:56 Cloudy 14 -10 8 -13.3 77 77 N 22 35 30.19 1022 10 16.0934 0 0.0254
3:56 am 03:56 Clear 13 -10.6 7 -13.9 77 77 N 21 33 30.22 1023 10 16.0934 0 0
4:56 am 04:56 Mostly Cloudy 12 -11.1 6 -14.4 77 77 N 20 31 30.26 1025 10 16.0934 0 0
5:56 am 05:56 Cloudy 12 -11.1 5 -15 73 73 N 23 37 30.32 1027 10 16.0934 0 0
6:56 am 06:56 Cloudy 11 -11.7 5 -15 77 77 NNW 20 31 30.35 1028 10 16.0934 0 0
7:56 am 07:56 Cloudy 11 -11.7 4 -15.6 73 73 NNW 18 30 30.4 1029 10 16.0934 0 0
8:56 am 08:56 Cloudy 11 -11.7 3 -16.1 70 70 N 9 15 30.43 1031 10 16.0934 0 0
9:04 am 09:04 Cloudy 10 -12 3 -16 72 72 N 14 22 30.45 1031 10 16.0934 0 0
9:56 am 09:56 Cloudy 12 -11.1 3 -16.1 67 67 N 14 22 30.47 1032 10 16.0934 0 0
10:56 am 10:56 Cloudy 14 -10 4 -15.6 64 64 N 14 22 30.5 1033 10 16.0934 0 0
11:56 am 11:56 Cloudy 15 -9.4 3 -16.1 59 59 NNW 17 28 30.51 1033 10 16.0934 0 0
12:56 pm 12:56 Mostly Sunny 17 -8.3 6 -14.4 62 62 N 14 22 30.51 1033 10 16.0934 0 0
1:56 pm 13:56 Mostly Cloudy 16 -8.9 4 -15.6 59 59 N 13 20 30.52 1034 10 16.0934 0 0
2:56 pm 14:56 Cloudy 15 -9.4 5 -15 64 64 N 9 15 30.53 1034 10 16.0934 0 0
3:56 pm 15:56 Cloudy 15 -9.4 6 -14.4 67 67 NNW 14 22 30.55 1035 10 16.0934 0 0
4:56 pm 16:56 Cloudy 15 -9.4 6 -14.4 67 67 NW 6 9 30.57 1035 10 16.0934 0 0
5:56 pm 17:56 Cloudy with Light Snow 15 -9.4 7 -13.9 70 70 NW 8 13 30.59 1036 9 14.48406 0 0.0254
6:56 pm 18:56 Partly Cloudy 12 -11.1 6 -14.4 77 77 N 3 6 30.61 1037 10 16.0934 0 0.0254
7:56 pm 19:56 Clear 8 -13.3 3 -16.1 80 80 Calm 30.63 1037 10 16.0934 0 0
8:56 pm 20:56 Mostly Cloudy 6 -14.4 2 -16.7 83 83 Calm 30.64 1038 10 16.0934 0 0
9:56 pm 21:56 Cloudy 7 -13.9 3 -16.1 84 84 Calm 30.65 1038 10 16.0934 0 0
10:56 pm 22:56 Cloudy 9 -12.8 6 -14.4 88 88 SW 5 7 30.66 1038 10 16.0934 0 0
11:56 pm 23:56 Cloudy 11 -11.7 7 -13.9 84 84 Calm 30.66 1038 10 16.0934 0 0

Powered by AerisWeather